User: anonymous   Login
Location: Oshawa
(43.9000°N, 78.8670°W)
Time: 14:04:58
(UTC-04:00)
Language:

Iridium 98 - Orbit

View from above orbital plane
View from above orbital plane
View from above satellite
View from above satellite

Ground track
Ground track

The orbit data is extracted from the following two-line orbital elements,

1 27451U 02031B   16125.65595660  .00000225  00000-0  73442-4 0  9995
2 27451  86.3998 192.9781 0002466  95.9902  14.1972 14.34218306732742
Epoch (UTC): 04 May 2016 15:44:34
Eccentricity: 0.0002466
inclination: 86.3998°
perigee height: 776 km
apogee height: 779 km
right ascension of ascending node: 192.9781°
argument of perigee: 95.9902°
revolutions per day: 14.34218306
mean anomaly at epoch: 14.1972°
orbit number at epoch: 73274

The dashed part of the orbit path shows where the satellite is in the earth's shadow,  

DLR